Wetbulb
58.89 54.56 52.86 54.73 57.73 58.69 58.13 56.20 54.88 58.73 61.47 58.75 58.27 58.48 61.06 63.00 63.32 66.83 66.34 68.50 68.32 68.95 70.79 72.03 72.11 72.55 73.17 74.09 74.94 74.74 75.46 77.05 76.02 75.16 74.58 74.49 73.34 75.04 76.35 77.17 78.75 79.21 79.50 79.55
56.02 53.04 56.36 57.65 57.87 57.58 57.37 55.38 54.29 57.70 60.24 59.58 58.45 57.65 59.92 62.47 63.60 66.95 67.30 68.72 68.73 68.86 69.66 71.20 71.83 72.03 72.13 73.11 74.49 75.15 75.51 76.94 76.66 75.79 75.66 75.47 76.05 75.04 75.45 76.61 78.77 79.19 79.02 80.11
53.83 55.10 57.64 56.52 56.08 54.91 56.28 55.12 54.61 55.17 58.59 59.47 58.48 56.25 58.76 61.49 62.56 65.16 68.02 68.98 69.51 69.66 69.53 70.24 71.04 71.51 72.05 73.26 74.20 75.07 75.66 77.21 77.13 76.78 76.94 77.38 77.41 77.61 75.50 74.83 75.35 77.45 79.07 79.30
55.28 57.69 55.57 55.23 54.80 54.85 52.74 58.16 56.96 56.04 55.40 52.49 58.00 50.55 58.02 58.96 60.56 63.96 65.94 66.74 68.99 70.12 70.94 70.90 71.21 71.42 72.02 73.04 74.40 75.61 76.11 76.40 77.25 77.56 75.88 75.99 73.23 72.17 73.17 74.36 75.14 76.28 77.63 78.24
54.61 54.75 54.23 53.77 54.32 55.38 52.59 56.09 56.69 56.29 54.23 54.07 54.29 52.10 55.64 58.93 58.32 62.14 64.87 66.26 68.35 70.40 70.81 70.85 70.94 71.76 72.52 73.50 74.30 75.36 76.02 76.63 77.58 76.34 77.57 75.19 74.51 73.66 74.06 74.87 75.39 77.07 77.82 79.13
56.48 58.04 55.44 53.90 55.30 54.66 55.07 54.48 54.45 54.29 53.07 48.76 52.38 52.81 53.93 56.18 58.68 60.40 63.98 67.02 68.17 69.69 71.15 71.97 72.26 72.56 72.44 73.86 74.77 75.18 76.09 76.28 77.44 77.31 76.35 77.76 74.78 74.93 72.86 73.35 74.19 75.76 77.42 77.60
54.77 55.18 55.39 55.18 52.22 53.95 52.76 50.25 45.91 45.05 46.11 45.56 52.81 51.35 54.69 58.57 60.85 61.34 63.71 64.89 68.31 69.67 70.75 71.85 72.06 71.94 72.08 72.82 73.96 74.82 76.10 75.86 76.98 77.41 76.58 75.95 77.79 75.23 75.85 77.32 73.26 74.56 74.89 76.37
48.57 47.53 54.13 54.49 52.46 51.16 50.95 49.82 45.94 41.59 43.48 45.65 52.05 48.97 53.07 59.32 61.07 62.15 64.17 64.82 66.46 68.20 70.24 71.45 72.62 72.58 72.25 72.64 73.65 74.39 75.80 76.15 77.23 77.18 77.32 76.82 77.44 77.00 74.75 76.69 75.23 74.19 75.15 75.88
49.17 48.63 55.30 55.40 54.83 54.21 50.84 48.39 52.01 47.79 49.09 46.42 48.84 51.74 55.40 59.12 59.56 60.83 61.26 64.05 65.05 67.15 68.99 70.76 72.91 73.17 72.71 72.52 73.24 73.98 74.96 76.22 77.13 76.97 77.67 77.78 76.39 77.67 76.00 75.44 77.53 77.20 76.56 77.70
51.97 48.45 53.21 54.41 55.40 54.22 52.92 53.87 47.30 48.62 43.47 43.53 47.03 50.51 50.81 55.23 58.33 60.13 61.27 62.07 64.80 66.56 68.69 71.22 72.57 73.24 73.38 73.34 73.77 74.62 75.49 75.99 77.11 77.72 77.58 77.85 77.70 77.43 77.21 76.69 77.19 76.47 78.69 77.73
52.18 51.35 51.07 54.04 52.01 50.73 50.85 50.67 50.59 50.12 48.63 44.98 44.90 48.75 57.76 57.88 58.91 60.13 61.20 62.77 64.07 66.51 68.41 70.24 72.41 73.71 74.18 74.05 73.86 74.21 74.76 76.31 77.21 77.89 78.08 78.00 78.31 77.84 77.57 77.05 77.39 78.56 77.64 80.28
54.12 50.63 47.94 50.40 55.08 55.24 53.62 51.35 52.28 48.15 47.89 49.58 49.85 49.40 57.70 59.32 60.20 61.00 61.27 63.09 64.35 66.64 68.99 70.33 72.15 73.17 74.00 73.95 73.99 74.15 74.94 75.65 77.22 78.26 78.37 77.86 78.31 78.76 78.08 77.29 77.53 78.14 78.80 78.31
50.29 49.91 46.24 48.34 53.07 54.45 52.22 52.48 52.66 52.98 51.63 50.07 47.42 49.06 58.39 59.57 60.69 61.72 61.69 63.27 64.78 66.88 69.31 70.26 71.36 72.25 73.55 74.23 74.44 74.41 74.85 75.31 77.35 78.07 78.46 78.30 78.28 78.09 78.25 78.21 77.72 78.29 77.80 78.98
51.81 49.28 48.87 47.07 50.70 53.95 51.26 51.50 52.71 51.49 49.53 49.85 50.22 52.27 55.45 57.03 57.89 61.61 62.68 64.36 65.34 67.74 68.66 69.68 70.27 72.03 73.18 74.34 74.79 75.16 75.23 75.78 76.15 77.67 77.91 77.64 78.38 78.44 78.56 78.76 78.83 78.12 78.62 77.62
51.31 47.69 50.84 51.97 53.35 54.11 51.93 51.08 51.84 51.29 53.03 50.25 51.88 52.75 55.85 58.75 59.50 61.39 62.90 64.95 65.60 67.39 68.03 70.11 70.24 72.57 73.16 74.26 75.03 75.57 76.01 76.23 76.59 75.88 77.11 77.06 77.91 78.87 78.69 78.57 78.87 79.29 78.70 78.87
49.72 46.40 50.38 49.73 52.68 53.02 51.83 52.27 52.22 52.39 52.11 52.95 53.47 53.46 58.36 60.52 62.01 61.78 63.19 63.56 64.20 65.81 66.45 68.34 69.06 73.22 74.52 76.20 75.36 75.61 75.86 76.68 76.89 76.52 76.38 77.30 77.55 77.91 78.48 78.40 78.37 78.77 78.97 78.73
45.46 46.01 46.36 45.09 51.04 51.60 48.99 52.54 52.72 53.05 54.04 53.40 52.05 56.44 59.27 59.36 60.03 61.08 61.69 62.60 62.43 61.92 64.62 67.01 69.08 71.86 73.89 74.06 77.54 76.50 76.13 76.60 77.04 76.57 77.53 77.49 77.66 77.74 78.09 78.40 78.44 77.99 78.39 78.86
43.34 44.21 45.78 44.17 48.29 41.75 52.34 56.58 55.62 54.29 54.75 55.57 56.37 58.19 60.41 61.03 62.38 62.79 62.91 62.46 64.21 63.92 65.05 69.08 65.16 68.53 71.67 69.15 69.44 74.35 77.42 77.13 76.54 77.96 76.95 78.21 78.37 77.68 78.40 78.39 78.12 78.38 78.32 78.41
46.27 44.03 42.48 42.69 44.21 49.23 51.76 54.25 54.04 53.02 53.41 56.61 57.07 58.05 58.58 60.07 60.72 61.51 62.54 62.80 62.72 64.83 66.96 66.78 67.52 68.12 74.55 73.13 74.71 73.89 74.55 76.81 77.07 76.20 77.93 77.22 78.62 77.89 78.11 78.10 77.93 78.32 78.39 78.27
45.47 46.67 42.71 43.68 41.36 41.31 51.03 55.00 56.94 56.66 49.76 58.14 57.53 57.20 57.63 58.44 54.29 60.62 66.33 66.63 66.86 67.97 69.58 70.64 70.98 70.89 71.25 73.65 72.66 74.89 73.96 75.30 75.63 76.19 76.38 78.48 77.27 78.15 77.99 78.20 78.34 78.76 78.83 78.57
40.18 41.04 39.66 41.06 40.99 46.88 52.73 53.94 56.52 48.42 50.07 58.55 59.99 60.28 58.84 58.80 61.93 64.40 65.50 65.68 67.12 68.33 69.62 71.22 71.90 71.68 72.58 73.37 74.03 74.48 75.33 72.50 75.70 77.21 77.52 77.67 78.70 77.64 78.53 78.81 79.19 78.97 78.63 78.60
40.11 38.21 38.20 41.18 40.09 39.36 52.16 52.33 49.39 54.72 56.22 56.01 57.05 57.69 58.87 60.74 61.62 61.96 62.58 64.36 65.57 66.74 68.11 71.05 71.38 72.50 73.44 73.54 74.21 75.87 75.27 79.38 80.55 77.88 78.12 78.19 79.03 78.19 78.26 78.93 79.39 79.29 78.82 78.19
38.22 42.35 40.84 42.84 43.24 53.20 53.23 52.30 53.99 54.41 54.37 54.81 54.97 55.38 56.82 57.49 57.53 57.94 60.37 63.13 64.22 66.43 67.69 70.30 72.44 72.25 73.50 73.80 77.35 76.75 77.18 81.00 80.96 81.18 80.32 78.53 79.26 79.15 78.39 78.72 78.53 78.37 78.75 77.83
43.34 46.73 42.57 43.45 46.57 48.71 50.30 52.25 52.89 53.31 52.80 53.75 54.20 54.19 54.57 54.94 55.79 55.99 58.96 61.52 63.40 65.77 67.24 68.86 71.78 74.39 75.99 80.42 77.36 79.22 79.58 79.91 80.93 79.60 81.04 79.77 79.06 78.43 78.67 78.67 78.41 77.86 77.64 77.51
42.62 44.17 42.76 42.81 46.51 48.62 49.59 50.71 51.66 52.41 53.10 53.09 53.93 54.04 54.06 54.54 54.80 55.77 59.11 62.13 63.49 66.38 67.45 69.84 72.21 75.85 76.81 77.97 78.83 78.98 80.11 79.89 79.26 80.02 79.40 79.27 78.44 77.97 78.50 77.95 77.20 77.74 78.37 74.86
43.69 40.80 38.89 39.49 46.31 46.46 47.91 51.14 52.76 52.28 52.16 53.50 53.63 53.98 55.02 55.43 56.37 58.06 58.77 61.57 64.45 66.24 67.67 70.45 74.51 74.71 75.49 75.33 76.49 77.30 78.39 79.83 79.73 78.20 77.45 76.96 76.73 77.55 77.31 77.53 76.61 51.00 53.57 50.61
MSLP
997.99 997.69 996.24 996.47 996.64 996.77 995.82 995.36 994.84 993.95 993.98 994.35 994.63 994.89 995.16 996.11 997.06 997.92 998.69 999.95 1001.32 1002.64 1003.66 1004.61 1005.62 1006.51 1007.41 1008.48 1009.63 1010.58 1011.46 1012.22 1012.97 1013.67 1014.36 1014.61 1014.80 1014.75 1014.80 1014.52 1014.51 1015.00 1015.38 1016.13
997.41 995.54 996.08 996.65 996.63 996.47 995.81 994.81 993.81 993.49 992.95 993.94 993.73 994.07 994.29 994.80 995.48 996.93 997.48 998.35 999.87 1001.66 1002.73 1003.82 1004.95 1005.82 1006.79 1007.92 1009.07 1010.18 1011.09 1011.94 1012.54 1013.16 1013.86 1014.27 1014.31 1014.39 1014.51 1014.41 1014.38 1014.55 1014.95 1015.53
995.12 994.73 995.76 995.69 995.67 995.45 995.20 994.57 993.59 992.88 992.70 994.36 993.68 993.64 993.48 994.18 995.64 995.25 996.17 997.29 998.52 1000.28 1001.52 1002.73 1003.88 1004.82 1005.96 1007.19 1008.35 1009.58 1010.56 1011.44 1012.15 1012.76 1013.42 1013.87 1014.05 1014.08 1014.13 1014.23 1014.47 1014.62 1014.83 1015.21
994.72 994.75 994.48 994.68 994.43 994.72 994.19 994.43 993.90 992.97 992.41 992.37 992.61 992.73 992.96 993.13 993.69 994.71 995.45 996.49 997.22 998.75 1000.48 1002.08 1003.33 1004.39 1005.20 1006.31 1007.74 1008.99 1010.05 1010.96 1011.71 1012.36 1012.85 1013.17 1013.45 1013.59 1013.74 1013.82 1014.11 1014.41 1014.61 1014.89
992.64 993.21 993.07 993.33 993.43 993.95 993.70 993.86 993.91 993.41 992.83 992.71 991.87 992.25 991.85 992.52 992.53 993.22 994.01 994.87 995.79 997.16 998.81 1000.64 1002.09 1003.37 1004.28 1005.53 1006.84 1008.14 1009.42 1010.45 1011.21 1011.94 1012.24 1012.67 1012.98 1013.19 1013.33 1013.44 1013.70 1013.97 1014.33 1014.47
992.72 992.81 992.40 992.07 993.04 993.19 993.57 993.53 993.67 993.80 993.40 992.21 991.93 991.70 991.06 990.88 991.50 991.86 992.75 993.78 994.80 995.90 997.45 999.10 1000.87 1002.67 1003.90 1004.92 1006.24 1007.49 1008.73 1009.77 1010.60 1011.31 1011.85 1012.07 1012.41 1012.73 1012.95 1013.11 1013.24 1013.41 1013.88 1014.35
992.16 991.55 991.48 991.30 991.47 992.39 992.77 993.06 992.82 992.63 992.25 991.65 992.34 991.46 990.39 989.93 990.23 990.77 991.41 992.60 993.47 994.56 996.02 997.81 999.74 1001.21 1002.78 1003.77 1005.02 1006.36 1007.59 1008.72 1009.67 1010.39 1011.05 1011.50 1011.68 1012.27 1012.48 1012.55 1012.87 1012.94 1013.23 1013.65
990.65 990.29 989.81 989.86 990.08 990.66 991.24 991.58 991.00 991.19 991.49 992.07 992.36 990.59 989.97 990.29 989.63 989.59 990.07 990.99 992.18 993.39 994.81 996.52 998.50 1000.04 1001.59 1002.87 1003.96 1005.15 1006.37 1007.60 1008.61 1009.38 1010.01 1010.73 1011.32 1011.51 1011.92 1012.10 1011.99 1012.42 1012.55 1012.69
989.71 989.02 989.82 989.25 989.71 989.93 990.35 990.13 991.40 991.60 991.65 991.14 990.60 990.59 990.31 989.71 989.48 989.22 989.27 989.81 990.86 992.14 993.51 995.16 996.99 998.81 1000.37 1001.73 1002.93 1003.88 1005.15 1006.38 1007.39 1008.14 1008.99 1009.82 1010.54 1010.83 1011.06 1011.46 1011.56 1011.75 1012.01 1012.05
989.86 989.25 988.45 988.67 989.14 989.36 988.90 990.66 991.09 991.10 990.56 989.86 989.31 988.48 987.88 988.30 988.38 988.80 988.79 988.93 989.80 991.11 992.49 994.12 995.79 997.56 999.05 1000.25 1001.73 1003.19 1004.21 1005.27 1006.15 1007.15 1007.87 1008.45 1009.04 1009.81 1010.34 1010.78 1011.10 1011.26 1011.51 1011.79
991.34 989.81 988.08 987.92 987.40 987.71 988.73 988.93 990.08 990.76 990.47 989.66 988.54 986.63 985.47 986.24 986.92 987.58 988.28 988.95 989.43 990.29 991.56 992.94 994.64 996.25 997.71 999.32 1000.68 1002.08 1003.36 1004.50 1005.51 1006.41 1007.06 1007.71 1008.39 1009.12 1009.68 1010.02 1010.39 1010.74 1011.15 1011.49
990.85 989.89 988.81 987.12 986.45 987.49 988.13 988.53 988.92 989.24 989.69 989.39 988.15 986.29 985.46 985.14 986.00 986.96 987.73 988.39 989.44 989.94 990.91 992.13 993.50 995.08 996.74 998.19 999.51 1000.62 1002.06 1003.11 1004.25 1005.25 1006.14 1006.83 1007.40 1008.00 1008.68 1009.27 1009.56 1009.97 1010.42 1010.84
994.37 990.56 989.15 987.95 986.49 986.13 986.69 987.68 988.52 988.93 989.38 988.66 988.06 986.87 986.50 985.73 985.87 986.79 987.64 988.31 989.08 989.97 990.51 991.59 992.73 994.05 995.36 996.80 998.15 999.42 1000.61 1001.67 1003.00 1004.35 1005.26 1005.94 1006.58 1007.15 1007.49 1008.02 1008.66 1009.07 1009.54 1009.85
996.29 993.13 990.06 987.27 986.10 985.47 986.22 987.09 987.76 988.24 987.90 988.20 987.63 987.32 987.36 987.11 986.99 987.24 987.84 988.55 989.03 989.81 990.47 991.20 992.01 993.10 994.16 995.60 996.93 998.11 999.23 1000.35 1001.59 1002.72 1003.81 1004.61 1005.20 1005.90 1006.51 1007.11 1007.68 1008.12 1008.45 1008.97
995.43 993.47 991.43 988.96 987.31 986.02 986.02 986.70 986.94 987.01 987.29 987.47 987.13 986.85 987.41 987.62 987.88 987.92 988.37 988.92 989.24 989.90 990.46 991.07 991.60 992.31 993.37 994.28 995.74 996.88 997.78 998.91 999.90 1001.10 1002.05 1002.84 1003.91 1004.64 1005.47 1006.04 1006.53 1007.09 1007.61 1007.94
996.89 994.59 992.82 990.39 988.64 987.66 986.52 985.78 986.39 986.64 987.04 987.04 986.87 986.36 987.17 987.94 988.52 988.84 989.39 989.87 990.23 990.69 991.23 991.73 992.28 992.78 993.37 994.03 994.95 995.89 996.73 997.54 998.71 999.56 1000.28 1001.55 1002.52 1003.42 1004.10 1004.84 1005.31 1006.09 1006.68 1007.05
999.00 996.63 994.59 992.05 990.71 988.83 987.11 985.91 985.70 986.38 986.53 986.85 986.46 986.49 986.95 987.94 988.65 989.28 990.08 990.78 991.31 991.78 992.05 992.34 992.62 993.08 993.47 993.98 994.65 995.26 996.05 996.84 997.62 998.59 999.48 1000.24 1001.22 1002.11 1002.87 1003.64 1004.44 1005.01 1005.38 1006.13
1000.19 998.68 996.56 994.11 992.13 989.97 988.28 987.15 986.93 986.45 986.47 986.70 987.02 986.79 987.46 988.16 988.84 989.55 990.40 991.25 992.01 992.39 992.68 992.93 993.07 993.17 993.29 993.55 994.00 994.76 995.46 996.41 997.14 997.90 998.58 999.31 1000.17 1001.02 1001.87 1002.68 1003.23 1003.87 1004.52 1004.89
1000.53 999.63 997.66 995.19 993.14 991.23 989.43 988.02 987.52 987.47 987.25 987.33 987.35 987.64 988.00 989.28 989.97 990.86 991.50 992.00 992.70 993.24 993.51 993.63 993.64 993.27 993.28 993.34 993.55 994.28 995.11 995.80 996.62 997.30 997.86 998.48 999.20 999.96 1000.74 1001.33 1001.99 1002.76 1003.45 1003.91
1000.49 999.98 999.26 996.71 994.46 992.07 990.74 988.92 988.22 988.26 989.22 989.75 989.26 989.29 989.43 990.36 991.47 992.85 993.34 993.73 994.19 994.51 994.78 994.78 994.67 994.28 994.16 994.03 993.66 993.86 994.61 995.31 995.99 996.45 997.02 997.82 998.42 999.01 999.55 1000.20 1000.99 1001.74 1002.31 1002.71
1000.27 1000.39 999.52 998.28 996.30 993.61 992.59 991.55 990.22 990.67 994.05 993.07 992.15 991.34 991.42 992.29 993.78 994.48 994.74 995.37 995.63 995.65 995.64 995.35 995.16 994.92 994.66 994.53 994.30 994.36 994.66 994.46 994.89 995.65 996.31 997.00 997.61 998.20 998.74 999.55 1000.24 1000.88 1001.44 1001.91
1000.49 1000.72 1000.44 999.26 997.43 995.95 995.75 994.29 994.03 995.31 995.47 995.25 995.00 994.82 994.67 994.83 995.26 995.60 995.96 996.35 996.45 996.45 996.26 995.74 995.22 994.95 994.70 994.48 994.43 994.37 994.55 994.48 994.49 994.85 995.45 996.15 996.80 997.49 998.09 998.83 999.53 1000.15 1000.80 1001.22
1001.98 1001.78 1000.48 999.92 998.40 996.78 997.29 996.71 997.16 996.91 996.77 996.88 997.06 997.07 997.14 996.97 996.97 997.33 997.28 997.24 997.09 997.00 996.95 996.42 995.48 994.85 994.52 994.25 994.13 994.35 994.42 994.43 994.53 994.75 994.97 995.51 996.24 996.94 997.60 998.24 999.05 999.77 1000.22 1000.64
1003.58 1002.45 1001.78 1001.07 1000.01 998.75 998.50 998.19 998.25 998.24 998.27 998.40 998.52 998.47 998.52 998.49 998.38 998.18 997.93 997.67 997.57 997.50 997.48 996.91 995.98 994.80 994.26 993.87 994.07 994.40 994.40 994.47 994.44 994.51 994.79 995.28 995.94 996.62 997.28 997.90 998.64 999.33 999.70 1000.10
1006.11 1005.02 1003.92 1002.85 1001.64 1000.55 999.65 999.61 999.44 999.38 999.30 999.37 999.44 999.39 999.35 999.39 999.24 999.01 998.81 998.88 998.73 998.31 997.72 997.00 995.93 994.98 994.60 994.39 994.53 994.49 994.18 994.17 994.24 994.47 994.73 995.18 995.71 996.43 997.06 997.80 998.67 999.37 999.56 999.72
1007.54 1006.94 1006.47 1004.98 1003.90 1003.23 1002.22 1001.30 1000.55 999.97 999.53 999.39 999.51 999.62 999.69 999.74 999.86 999.95 999.92 999.83 999.32 998.89 997.84 996.68 995.65 995.47 995.33 995.40 995.25 995.25 995.00 994.45 994.28 994.44 994.73 995.02 995.34 995.83 996.66 997.47 998.65 1000.36 1000.31 1000.33
Wind_Speed
25 19 26 29 26 23 23 21 24 21 21 19 22 18 16 19 14 24 21 22 23 22 21 20 19 18 17 17 17 16 13 10 12 10 10 8 8 5 4 4 4 8 6 6
23 29 27 27 25 27 28 25 24 23 21 19 22 20 19 21 22 20 25 25 23 23 23 22 21 21 19 19 18 17 15 12 11 9 9 7 5 6 6 5 4 5 6 4
29 19 26 28 27 28 29 27 24 21 12 11 19 17 21 18 27 12 26 25 25 24 23 22 24 22 21 20 19 18 17 14 12 12 7 6 6 4 5 6 5 6 5 7
28 30 30 28 29 28 27 28 27 25 19 17 23 14 17 18 16 21 22 17 24 25 22 22 22 21 22 20 20 19 18 16 14 12 11 10 9 8 6 5 5 7 11 9
29 26 28 29 27 28 25 27 25 26 19 19 17 15 14 20 20 24 23 23 22 25 25 26 25 24 22 21 21 19 19 17 15 15 11 11 10 8 7 5 7 7 10 9
31 27 27 24 23 28 25 23 24 24 18 18 22 20 20 18 22 19 22 25 24 25 26 27 24 22 19 19 20 19 20 18 17 16 17 11 14 10 8 8 6 6 7 7
28 33 28 27 23 26 24 22 15 17 19 15 22 22 14 16 23 22 24 21 23 22 24 24 26 23 22 22 23 21 23 22 20 19 19 18 12 15 10 7 9 8 8 9
24 31 35 21 30 24 28 26 15 24 17 17 22 23 20 21 21 18 25 25 23 23 23 24 26 23 23 22 23 23 23 22 22 21 20 18 15 10 12 10 8 8 8 9
24 29 24 31 24 25 24 28 23 21 21 17 18 29 25 23 24 21 18 23 24 24 23 25 27 24 24 22 23 23 24 24 23 24 18 18 17 15 14 14 9 7 8 6
29 17 30 31 26 29 30 21 22 17 21 20 19 22 19 24 23 24 18 15 22 23 22 24 24 25 24 24 22 22 21 24 24 23 21 19 19 18 15 13 12 12 7 9
30 26 21 29 32 27 22 22 25 19 17 15 15 13 16 26 24 20 22 16 15 21 22 22 23 24 24 22 22 22 21 21 21 20 20 19 18 19 18 14 14 11 12 7
19 23 21 26 29 31 28 27 25 13 21 16 15 11 11 3 23 19 15 21 17 14 20 21 22 22 22 24 23 23 21 21 21 20 19 20 19 18 19 18 17 15 13 13
13 14 20 26 24 30 33 30 27 21 17 20 15 10 9 10 20 19 18 12 18 14 15 20 21 21 22 23 22 22 23 23 20 20 19 19 19 19 20 19 19 17 17 15
6 9 20 19 20 18 29 29 28 28 18 15 18 7 7 5 5 11 14 11 11 12 12 18 18 20 20 21 21 21 22 22 22 21 21 21 20 20 19 18 18 19 17 18
8 13 18 25 23 23 28 26 29 30 21 22 18 19 15 10 7 7 10 9 13 10 6 7 13 14 17 16 21 20 20 21 22 21 22 23 20 19 18 19 18 18 18 17
18 8 13 19 21 19 22 32 30 29 29 21 23 17 21 15 12 9 11 10 10 8 6 4 2 3 5 9 15 19 19 18 19 20 21 20 20 20 19 19 19 17 18 18
14 13 10 16 17 21 20 12 25 26 24 24 20 17 19 19 18 14 12 9 5 1 4 3 1 3 4 6 6 12 16 14 13 15 16 18 18 19 19 19 18 18 19 17
11 13 10 11 14 17 12 10 14 12 24 23 18 15 10 15 14 11 9 8 8 4 3 2 6 7 6 10 13 9 9 13 12 10 13 13 15 18 18 18 19 18 17 18
11 10 8 6 8 8 12 14 18 13 10 10 20 17 7 13 11 10 8 5 1 4 6 7 9 9 5 8 8 13 12 13 13 13 12 13 14 16 17 19 19 17 16 17
11 10 8 10 7 11 5 17 7 9 12 14 9 2 4 6 5 10 15 15 14 12 10 9 10 11 12 10 9 12 14 13 14 16 15 12 15 14 17 17 18 16 16 17
12 8 10 10 7 4 10 20 11 9 7 16 21 8 4 4 11 11 11 11 11 10 11 9 8 8 8 8 7 6 6 10 13 15 14 13 13 15 15 14 14 15 15 14
7 12 11 12 14 12 18 12 10 8 13 16 18 20 18 15 13 13 13 11 11 12 13 14 9 7 8 8 8 6 7 6 4 7 13 13 13 12 12 13 12 14 14 15
7 6 8 7 11 14 15 13 13 13 9 12 12 14 14 14 14 14 13 13 12 13 13 15 14 8 10 10 6 6 7 6 5 5 7 11 11 12 11 12 12 11 12 12
19 19 12 13 16 19 14 14 11 14 13 12 12 13 12 13 15 15 13 13 13 12 14 16 19 10 8 2 2 5 6 6 7 7 6 7 9 10 11 8 10 11 11 11
13 20 18 20 18 18 18 17 18 16 17 16 14 15 13 14 15 14 14 13 14 13 15 16 16 6 8 7 4 6 5 7 6 6 6 7 7 9 9 10 5 10 11 8
13 17 14 16 25 21 23 23 24 19 18 16 15 16 15 13 12 14 12 12 12 10 18 15 8 7 5 5 5 6 7 6 4 6 6 7 7 8 8 8 8 18 12 12
Wind_Direction
206 211 214 216 221 226 243 224 221 233 224 206 221 219 170 179 183 188 167 173 175 185 186 173 188 182 176 168 166 172 175 180 164 172 185 209 204 204 216 259 203 178 170 182
199 222 214 218 217 226 233 244 234 231 204 211 216 207 214 194 193 171 176 181 173 182 181 179 185 182 189 175 171 173 179 180 176 178 181 201 205 210 200 212 215 179 173 223
212 213 219 217 214 222 223 233 245 235 164 268 225 228 222 191 219 190 175 182 173 184 183 182 181 189 184 174 175 176 178 183 183 180 184 191 205 228 188 203 205 182 195 199
217 222 202 218 221 216 222 224 240 252 243 207 204 209 214 218 173 180 190 184 176 179 182 180 182 191 183 181 177 174 180 187 185 191 187 194 202 205 222 189 198 183 194 217
211 215 222 209 219 217 225 220 227 248 258 253 218 222 213 210 215 181 190 178 193 177 180 176 183 188 191 180 176 175 179 184 188 192 214 192 200 212 201 214 204 201 189 201
225 213 226 214 210 225 222 229 222 230 246 247 246 235 212 214 206 208 189 185 191 179 180 176 179 182 193 181 176 176 176 186 190 191 206 213 196 209 209 200 216 195 176 190
217 228 215 224 211 209 214 215 215 218 213 231 235 246 251 238 194 206 184 197 189 182 177 174 173 179 186 185 178 179 179 186 190 193 198 211 211 199 225 209 212 198 193 188
215 208 220 206 213 203 210 213 220 214 218 219 230 230 232 251 260 224 182 186 190 182 177 175 172 178 183 190 183 182 182 185 188 196 198 203 213 198 211 226 204 219 208 201
211 227 202 228 213 213 197 215 217 226 225 230 221 220 247 225 241 249 229 189 184 178 183 176 170 178 180 187 188 187 183 187 190 195 195 197 201 214 204 217 217 203 222 235
241 229 222 203 214 216 229 196 215 228 236 234 226 225 213 218 217 223 230 210 184 179 178 171 174 178 181 186 188 190 187 189 191 193 198 199 197 204 213 199 224 215 210 223
237 250 237 220 206 207 208 219 208 228 233 241 251 240 222 199 202 210 202 210 210 185 172 173 174 179 183 182 184 191 194 188 194 198 198 202 202 201 205 214 203 219 214 216
239 230 245 249 213 208 211 215 211 218 217 243 266 278 17 285 183 194 213 187 210 208 174 173 172 180 178 181 186 190 191 196 194 196 199 202 202 203 204 209 212 201 211 207
353 239 229 241 248 190 212 208 221 218 225 220 241 245 58 9 160 180 191 217 186 210 181 172 173 182 182 183 186 188 193 197 193 196 199 204 208 205 208 207 210 210 203 212
289 262 253 227 232 207 193 214 209 226 210 225 223 162 124 86 123 160 168 192 196 190 202 174 180 182 186 183 185 188 191 195 196 194 200 204 207 209 210 210 208 212 210 206
269 261 255 256 238 232 191 208 214 211 224 214 224 220 136 137 126 135 151 182 187 137 111 148 190 176 185 178 179 189 193 191 194 198 197 205 205 207 210 210 211 210 212 213
337 283 275 266 261 271 266 198 212 214 221 223 234 226 134 130 120 141 103 75 69 85 127 134 143 144 157 157 173 186 193 192 194 197 203 198 201 202 205 211 210 209 212 213
324 342 309 254 253 254 249 244 203 217 210 220 221 234 145 148 151 144 139 156 138 42 323 335 168 177 187 184 185 183 191 193 193 195 197 201 197 201 203 206 209 210 212 210
297 303 302 279 278 242 244 249 251 257 219 213 220 233 186 154 153 139 127 129 152 188 224 280 255 226 230 221 211 196 174 187 200 192 199 196 192 198 199 204 208 211 210 212
272 284 298 275 245 231 243 230 217 237 237 214 215 223 184 84 104 87 84 104 155 268 324 295 310 278 233 207 199 185 193 184 189 205 204 201 194 198 199 204 207 207 210 213
229 246 280 295 273 225 281 232 242 230 227 329 288 310 153 118 167 68 38 38 27 14 359 349 339 337 1 1 336 168 187 186 198 206 209 201 207 203 206 204 205 205 211 216
201 245 239 242 266 295 356 347 354 203 40 9 15 352 247 60 62 56 38 30 12 3 338 336 317 307 307 311 314 316 297 198 196 203 206 206 201 210 209 207 202 206 212 217
204 190 224 246 244 236 51 358 37 41 47 29 23 23 22 24 32 25 15 8 359 351 341 328 300 277 278 278 277 272 275 269 246 204 193 198 201 203 208 205 204 206 210 216
212 216 288 263 254 310 353 357 4 3 25 23 14 14 3 360 356 349 345 347 348 350 330 318 298 261 258 241 207 247 248 240 244 257 190 190 193 197 208 198 203 208 210 218
330 322 325 282 272 289 310 317 329 333 335 341 334 333 336 330 332 330 333 341 337 336 319 310 307 320 303 233 196 273 258 261 245 221 192 175 186 194 200 207 197 206 210 213
314 316 309 303 289 296 289 291 299 306 306 305 309 309 310 313 315 319 325 329 316 323 306 304 295 338 335 31 324 296 265 222 208 213 186 181 198 188 199 207 209 203 215 218
305 310 301 294 306 307 297 306 314 307 275 274 276 274 284 298 308 314 305 310 309 317 305 300 305 310 334 326 330 332 340 310 226 193 191 198 204 187 201 195 210 40 51 86